Location: Albany
(42.6526°N, 73.7562°W)
Time: 17:03:58
(UTC+00:00)

Geosat - Pass Details

Date: 19 November 2019
Orbit: 763 x 766 km, 108.0° (Epoch: 05 December)

Event Time Altitude Azimuth Distance (km) Brightness Sun altitude
Exits shadow 22:45:04 - 30° (NNE) 2,394 6.2 -13.9°
Reaches altitude 10° 22:45:16 10° 30° (NNE) 2,313 6.1 -14.0°
Maximum altitude 22:50:19 74° 116° (ESE) 801 3.9 -14.9°
Drops below altitude 10° 22:55:19 10° 201° (SSW) 2,296 6.9 -15.8°
Sets 22:57:35 0° 203° (SSW) 3,218 7.7 -16.2°
